Weather History for KLHZ - April, 2013

Change the Weather History Date:

Saturday, April 27, 2013

  Actual Average (KRDU) Record (KRDU)
Temperature  
Mean Temperature 60 °F 63 °F  
Max Temperature 71 °F 75 °F 92 °F (1990)
Min Temperature 48 °F 51 °F 32 °F (1976)
Degree Days  
Heating Degree Days 6 4  
Month to date heating degree days 180  
Since 1 July heating degree days 3176  
Cooling Degree Days 0 2  
Month to date cooling degree days 41  
Year to date cooling degree days 53  
Growing Degree Days 10 (Base 50)    
Moisture  
Dew Point 43 °F    
Average Humidity 55    
Maximum Humidity 100    
Minimum Humidity 29    
Precipitation  
Precipitation 0.00 in 0.09 in 1.75 in (1960)
Month to date precipitation 2.66  
Year to date precipitation 13.50  
Snow  
Snow 0.00 in 0.00 in 0.00 in (2001)
Month to date snowfall 0.1  
Since 1 July snowfall 6.1  
Snow Depth -    
Sea Level Pressure  
Sea Level Pressure 30.34 in    
Wind  
Wind Speed 2 mph (SE)    
Max Wind Speed 9 mph    
Max Gust Speed -    
Visibility 10 miles    
Events      
T = Trace of Precipitation, MM = Missing Value Source: NWS Daily Summary

Daily Weather History Graph

Daily Weather History Graph

Search for Another Location

Airport or City:

Trip Planner

Search our weather history database for the weather conditions in past years. The results will help you decide how hot, cold, wet, or windy it might be!

Date:

Astronomy

Apr. 27, 2013 Rise Set
Actual Time 6:24 AM EDT 7:57 PM EDT
Civil Twilight 5:57 AM EDT 8:24 PM EDT
Nautical Twilight 5:25 AM EDT 8:57 PM EDT
Astronomical Twilight 4:50 AM EDT 9:31 PM EDT
Moon 10:21 PM EDT (4/27) 7:44 AM EDT (4/27)
Length of Visible Light 14h 26m
Length of Day
13h 32m
Waning Gibbous, 95% of the Moon is Illuminated
Apr 27
Waning Gibbous
May 2
Last Quarter
May 9
New
May 18
First Quarter
May 25
Full

Hourly Weather History & Observations

Time (EDT) Temp. Dew Point Humidity Pressure Visibility Wind Dir Wind Speed Gust Speed Precip Events Conditions
12:15 AM 53.6 °F 44.6 °F 72% 30.38 in 10.0 mi SE 4.6 mph - N/A   Clear
12:35 AM 53.6 °F 44.6 °F 72% 30.38 in 10.0 mi SE 4.6 mph - N/A   Clear
12:55 AM 51.8 °F 44.6 °F 76% 30.38 in 10.0 mi SE 3.5 mph - N/A   Clear
1:15 AM 51.8 °F 44.6 °F 76% 30.39 in 10.0 mi Calm Calm - N/A   Clear
1:35 AM 50.0 °F 44.6 °F 82% 30.38 in 10.0 mi Calm Calm - N/A   Clear
1:55 AM 51.8 °F 44.6 °F 76% 30.38 in 10.0 mi South 3.5 mph - N/A   Clear
2:15 AM 51.8 °F 44.6 °F 76% 30.38 in 10.0 mi SSE 3.5 mph - N/A   Clear
2:35 AM 51.8 °F 44.6 °F 76% 30.38 in 10.0 mi Calm Calm - N/A   Clear
2:55 AM 51.8 °F 44.6 °F 76% 30.39 in 10.0 mi Calm Calm - N/A   Scattered Clouds
3:15 AM 51.8 °F 44.6 °F 76% 30.38 in 10.0 mi SE 3.5 mph - N/A   Clear
3:35 AM 51.8 °F 44.6 °F 76% 30.38 in 10.0 mi Calm Calm - N/A   Clear
3:55 AM 50.0 °F 44.6 °F 82% 30.38 in 10.0 mi Calm Calm - N/A   Clear
4:15 AM 50.0 °F 46.4 °F 87% 30.38 in 10.0 mi Calm Calm - N/A   Clear
4:35 AM 50.0 °F 48.2 °F 94% 30.37 in 10.0 mi Calm Calm - N/A   Clear
4:55 AM 50.0 °F 48.2 °F 94% 30.36 in 10.0 mi Calm Calm - N/A   Clear
5:15 AM 51.8 °F 46.4 °F 82% 30.36 in 10.0 mi Calm Calm - N/A   Clear
5:35 AM 48.2 °F 48.2 °F 100% 30.36 in 10.0 mi Calm Calm - N/A   Clear
5:55 AM 48.2 °F 48.2 °F 100% 30.36 in 10.0 mi Calm Calm - N/A   Clear
6:15 AM - - N/A% 30.37 in 10.0 mi Calm Calm - N/A   Clear
7:55 AM 53.6 °F 46.4 °F 77% 30.40 in 10.0 mi Calm Calm - N/A   Clear
8:15 AM 55.4 °F 48.2 °F 77% 30.40 in 10.0 mi South 3.5 mph - N/A   Clear
8:35 AM 57.2 °F 50.0 °F 77% 30.40 in 10.0 mi SSE 3.5 mph - N/A   Clear
8:55 AM 59.0 °F 48.2 °F 67% 30.40 in 10.0 mi Calm Calm - N/A   Clear
9:15 AM 60.8 °F 46.4 °F 59% 30.39 in 10.0 mi Calm Calm - N/A   Clear
9:35 AM 62.6 °F 44.6 °F 52% 30.39 in 10.0 mi Calm Calm - N/A   Clear
9:55 AM 62.6 °F 41.0 °F 45% 30.39 in 10.0 mi South 5.8 mph - N/A   Clear
10:15 AM 64.4 °F 41.0 °F 42% 30.38 in 10.0 mi SSE 4.6 mph - N/A   Clear
10:35 AM 64.4 °F 37.4 °F 37% 30.39 in 10.0 mi SSW 3.5 mph - N/A   Clear
10:55 AM 66.2 °F 39.2 °F 37% 30.39 in 10.0 mi SSE 6.9 mph - N/A   Clear
11:15 AM 66.2 °F 37.4 °F 35% 30.39 in 10.0 mi Calm Calm - N/A   Clear
11:35 AM 68.0 °F 41.0 °F 37% 30.38 in 10.0 mi East 3.5 mph - N/A   Clear
11:55 AM 69.8 °F 42.8 °F 38% 30.37 in 10.0 mi East 8.1 mph - N/A   Clear
12:15 PM 69.8 °F 41.0 °F 35% 30.37 in 10.0 mi SSE 3.5 mph - N/A   Clear
12:35 PM 69.8 °F 41.0 °F 35% 30.36 in 10.0 mi East 4.6 mph - N/A   Clear
12:55 PM 69.8 °F 41.0 °F 35% 30.35 in 10.0 mi SSE 9.2 mph - N/A   Clear
1:15 PM 69.8 °F 39.2 °F 33% 30.34 in 10.0 mi Calm Calm - N/A   Clear
1:35 PM 71.6 °F 41.0 °F 33% 30.34 in 10.0 mi Calm Calm - N/A   Scattered Clouds
1:55 PM 69.8 °F 41.0 °F 35% 30.34 in 10.0 mi ESE 4.6 mph - N/A   Scattered Clouds
2:15 PM 69.8 °F 37.4 °F 31% 30.33 in 10.0 mi ESE 3.5 mph - N/A   Scattered Clouds
2:35 PM 69.8 °F 37.4 °F 31% 30.33 in 10.0 mi East 5.8 mph - N/A   Scattered Clouds
2:55 PM 69.8 °F 41.0 °F 35% 30.33 in 10.0 mi SE 3.5 mph - N/A   Mostly Cloudy
3:15 PM 69.8 °F 39.2 °F 33% 30.32 in 10.0 mi Calm Calm - N/A   Scattered Clouds
3:35 PM 71.6 °F 41.0 °F 33% 30.32 in 10.0 mi SE 3.5 mph - N/A   Clear
3:55 PM 69.8 °F 39.2 °F 33% 30.31 in 10.0 mi ESE 3.5 mph - N/A   Scattered Clouds
4:15 PM 71.6 °F 39.2 °F 31% 30.31 in 10.0 mi South 6.9 mph - N/A   Scattered Clouds
4:35 PM 71.6 °F 37.4 °F 29% 30.30 in 10.0 mi Calm Calm - N/A   Clear
4:55 PM 69.8 °F 39.2 °F 33% 30.30 in 10.0 mi Calm Calm - N/A   Clear
5:15 PM 69.8 °F 41.0 °F 35% 30.30 in 10.0 mi South 3.5 mph - N/A   Scattered Clouds
5:35 PM 69.8 °F 39.2 °F 33% 30.30 in 10.0 mi South 3.5 mph - N/A   Mostly Cloudy
5:55 PM 69.8 °F 41.0 °F 35% 30.30 in 10.0 mi SE 4.6 mph - N/A   Mostly Cloudy
6:15 PM 68.0 °F 41.0 °F 37% 30.30 in 10.0 mi Calm Calm - N/A   Scattered Clouds
6:35 PM 68.0 °F 42.8 °F 40% 30.29 in 10.0 mi Calm Calm - N/A   Clear
6:55 PM 68.0 °F 42.8 °F 40% 30.29 in 10.0 mi Calm Calm - N/A   Clear
7:15 PM 68.0 °F 44.6 °F 43% 30.29 in 10.0 mi Calm Calm - N/A   Mostly Cloudy
7:35 PM 66.2 °F 42.8 °F 43% 30.29 in 10.0 mi Calm Calm - N/A   Overcast
7:55 PM 64.4 °F 44.6 °F 49% 30.28 in 10.0 mi Calm Calm - N/A   Overcast
8:15 PM 64.4 °F 44.6 °F 49% 30.28 in 10.0 mi Calm Calm - N/A   Mostly Cloudy
8:35 PM 62.6 °F 44.6 °F 52% 30.28 in 10.0 mi Calm Calm - N/A   Scattered Clouds
8:55 PM 60.8 °F 44.6 °F 55% 30.28 in 10.0 mi Calm Calm - N/A   Scattered Clouds
9:15 PM 62.6 °F 44.6 °F 52% 30.29 in 10.0 mi Calm Calm - N/A   Mostly Cloudy
9:35 PM 59.0 °F 46.4 °F 63% 30.29 in 10.0 mi Calm Calm - N/A   Overcast
9:55 PM 60.8 °F 46.4 °F 59% 30.30 in 10.0 mi Calm Calm - N/A   Overcast
10:15 PM 60.8 °F 46.4 °F 59% 30.30 in 10.0 mi Calm Calm - N/A   Overcast
10:35 PM 60.8 °F 46.4 °F 59% 30.30 in 10.0 mi SE 3.5 mph - N/A   Overcast
10:55 PM 60.8 °F 46.4 °F 59% 30.30 in 10.0 mi SSE 5.8 mph - N/A   Overcast
11:15 PM 60.8 °F 46.4 °F 59% 30.29 in 10.0 mi SE 4.6 mph - N/A   Mostly Cloudy
11:35 PM 60.8 °F 46.4 °F 59% 30.29 in 10.0 mi SE 4.6 mph - N/A   Scattered Clouds
11:55 PM 59.0 °F 44.6 °F 59% 30.29 in 10.0 mi SSE 5.8 mph - N/A   Clear